Location: Buch
(50.1863°N, 11.0141°E)
Time: 19:49:10
(UTC+00:00)

CZ-2C R/B - Pass Details

Date: 18 January 2020
Orbit: 785 x 870 km, 98.3° (Epoch: 16 February)

Event Time Altitude Azimuth Distance (km) Brightness Sun altitude
Rises 05:39:55 0° 131° (SE) 3,292 7.0 -13.6°
Reaches altitude 10° 05:42:27 10° 121° (ESE) 2,376 6.4 -13.2°
Maximum altitude 05:46:58 30° 61° (ENE) 1,420 4.4 -12.5°
Drops below altitude 10° 05:51:35 10° 2° (N) 2,434 4.9 -11.8°
Sets 05:54:12 0° 353° (N) 3,386 5.6 -11.4°
